Year,Month,Day,Hour,Minute,Value (Times are PST for windspeed in km/hr)
2011,09,25,00,00,0.00
2011,09,25,00,01,0.00
2011,09,25,00,02,0.20
2011,09,25,00,03,0.00
2011,09,25,00,04,1.10
2011,09,25,00,05,0.70
2011,09,25,00,06,0.00
2011,09,25,00,07,0.00
2011,09,25,00,08,0.00
2011,09,25,00,09,0.00
2011,09,25,00,10,0.00
2011,09,25,00,11,0.10
2011,09,25,00,12,0.60
2011,09,25,00,13,2.80
2011,09,25,00,14,0.50
2011,09,25,00,15,0.10
2011,09,25,00,16,0.00
2011,09,25,00,17,0.00
2011,09,25,00,18,0.00
2011,09,25,00,19,0.00
2011,09,25,00,20,0.00
2011,09,25,00,21,0.00
2011,09,25,00,22,0.10
2011,09,25,00,23,0.20
2011,09,25,00,24,0.00
2011,09,25,00,25,0.00
2011,09,25,00,26,0.00
2011,09,25,00,27,0.00
2011,09,25,00,28,0.00
2011,09,25,00,29,0.10
2011,09,25,00,30,0.00
2011,09,25,00,31,0.00
2011,09,25,00,32,0.00
2011,09,25,00,33,0.10
2011,09,25,00,34,0.00
2011,09,25,00,35,0.10
2011,09,25,00,36,0.10
2011,09,25,00,37,0.00
2011,09,25,00,38,0.00
2011,09,25,00,39,0.10
2011,09,25,00,40,0.00
2011,09,25,00,41,0.00
2011,09,25,00,42,0.00
2011,09,25,00,43,0.20
2011,09,25,00,44,0.20
2011,09,25,00,45,0.10
2011,09,25,00,46,0.10
2011,09,25,00,47,0.10
2011,09,25,00,48,0.10
2011,09,25,00,49,0.00
2011,09,25,00,50,0.00
2011,09,25,00,51,0.00
2011,09,25,00,52,0.00
2011,09,25,00,53,0.00
2011,09,25,00,54,0.00
2011,09,25,00,55,0.20
2011,09,25,00,56,0.20
2011,09,25,00,57,0.00
2011,09,25,00,58,0.00
2011,09,25,00,59,0.00
2011,09,25,01,00,0.00
2011,09,25,01,01,0.00
2011,09,25,01,02,0.00
2011,09,25,01,03,0.20
2011,09,25,01,04,0.10
2011,09,25,01,05,0.00
2011,09,25,01,06,0.10
2011,09,25,01,07,0.00
2011,09,25,01,08,0.00
2011,09,25,01,09,0.20
2011,09,25,01,10,0.20
2011,09,25,01,11,0.30
2011,09,25,01,12,0.40
2011,09,25,01,13,0.40
2011,09,25,01,14,1.30
2011,09,25,01,15,0.10
2011,09,25,01,16,0.90
2011,09,25,01,17,0.60
2011,09,25,01,18,0.10
2011,09,25,01,19,0.20
2011,09,25,01,20,0.00
2011,09,25,01,21,0.00
2011,09,25,01,22,0.00
2011,09,25,01,23,0.30
2011,09,25,01,24,3.50
2011,09,25,01,25,0.70
2011,09,25,01,26,2.40
2011,09,25,01,27,4.80
2011,09,25,01,28,5.90
2011,09,25,01,29,4.10
2011,09,25,01,30,3.20
2011,09,25,01,31,2.10
2011,09,25,01,32,0.70
2011,09,25,01,33,0.10
2011,09,25,01,34,2.30
2011,09,25,01,35,5.20
2011,09,25,01,36,5.00
2011,09,25,01,37,2.10
2011,09,25,01,38,3.10
2011,09,25,01,39,0.20
2011,09,25,01,40,0.10
2011,09,25,01,41,0.10
2011,09,25,01,42,0.00
2011,09,25,01,43,0.00
2011,09,25,01,44,0.50
2011,09,25,01,45,0.00
2011,09,25,01,46,0.30
2011,09,25,01,47,2.70
2011,09,25,01,48,1.40
2011,09,25,01,49,0.30
2011,09,25,01,50,0.00
2011,09,25,01,51,0.00
2011,09,25,01,52,0.00
2011,09,25,01,53,0.00
2011,09,25,01,54,0.00
2011,09,25,01,55,0.00
2011,09,25,01,56,0.00
2011,09,25,01,57,0.00
2011,09,25,01,58,0.70
2011,09,25,01,59,2.20
2011,09,25,02,00,0.20
2011,09,25,02,01,2.20
2011,09,25,02,02,0.90
2011,09,25,02,03,1.90
2011,09,25,02,04,0.60
2011,09,25,02,05,2.20
2011,09,25,02,06,2.90
2011,09,25,02,07,0.80
2011,09,25,02,08,0.10
2011,09,25,02,09,0.00
2011,09,25,02,10,0.00
2011,09,25,02,11,0.20
2011,09,25,02,12,4.80
2011,09,25,02,13,4.70
2011,09,25,02,14,3.10
2011,09,25,02,15,1.40
2011,09,25,02,16,0.00
2011,09,25,02,17,0.10
2011,09,25,02,18,1.90
2011,09,25,02,19,3.40
2011,09,25,02,20,3.80
2011,09,25,02,21,1.80
2011,09,25,02,22,2.90
2011,09,25,02,23,3.20
2011,09,25,02,24,2.30
2011,09,25,02,25,0.20
2011,09,25,02,26,0.00
2011,09,25,02,27,0.00
2011,09,25,02,28,0.00
2011,09,25,02,29,0.00
2011,09,25,02,30,0.00
2011,09,25,02,31,0.00
2011,09,25,02,32,0.00
2011,09,25,02,33,1.80
2011,09,25,02,34,3.10
2011,09,25,02,35,0.20
2011,09,25,02,36,0.70
2011,09,25,02,37,1.60
2011,09,25,02,38,0.10
2011,09,25,02,39,0.10
2011,09,25,02,40,3.10
2011,09,25,02,41,0.70
2011,09,25,02,42,7.10
2011,09,25,02,43,0.00
2011,09,25,02,44,0.00
2011,09,25,02,45,1.30
2011,09,25,02,46,4.20
2011,09,25,02,47,3.40
2011,09,25,02,48,0.00
2011,09,25,02,49,0.00
2011,09,25,02,50,0.10
2011,09,25,02,51,0.00
2011,09,25,02,52,0.20
2011,09,25,02,53,1.70
2011,09,25,02,54,4.90
2011,09,25,02,55,1.50
2011,09,25,02,56,2.90
2011,09,25,02,57,5.90
2011,09,25,02,58,14.50
2011,09,25,02,59,18.70
2011,09,25,03,00,11.20
2011,09,25,03,01,10.90
2011,09,25,03,02,10.60
2011,09,25,03,03,18.90
2011,09,25,03,04,14.40
2011,09,25,03,05,14.50
2011,09,25,03,06,22.90
2011,09,25,03,07,19.30
2011,09,25,03,08,15.80
2011,09,25,03,09,17.00
2011,09,25,03,10,12.20
2011,09,25,03,11,19.80
2011,09,25,03,12,18.80
2011,09,25,03,13,12.20
2011,09,25,03,14,21.30
2011,09,25,03,15,30.60
2011,09,25,03,16,20.40
2011,09,25,03,17,19.80
2011,09,25,03,18,19.70
2011,09,25,03,19,18.70
2011,09,25,03,20,25.10
2011,09,25,03,21,23.00
2011,09,25,03,22,20.40
2011,09,25,03,23,15.50
2011,09,25,03,24,25.80
2011,09,25,03,25,21.00
2011,09,25,03,26,21.90
2011,09,25,03,27,16.70
2011,09,25,03,28,13.50
2011,09,25,03,29,17.10
2011,09,25,03,30,13.10
2011,09,25,03,31,17.30
2011,09,25,03,32,17.00
2011,09,25,03,33,19.80
2011,09,25,03,34,21.30
2011,09,25,03,35,20.40
2011,09,25,03,36,28.70
2011,09,25,03,37,26.40
2011,09,25,03,38,24.60
2011,09,25,03,39,24.10
2011,09,25,03,40,25.30
2011,09,25,03,41,28.20
2011,09,25,03,42,21.60
2011,09,25,03,43,16.20
2011,09,25,03,44,23.00
2011,09,25,03,45,31.30
2011,09,25,03,46,36.90
2011,09,25,03,47,30.50
2011,09,25,03,48,23.70
2011,09,25,03,49,36.00
2011,09,25,03,50,29.90
2011,09,25,03,51,25.50
2011,09,25,03,52,27.90
2011,09,25,03,53,26.00
2011,09,25,03,54,24.50
2011,09,25,03,55,27.10
2011,09,25,03,56,24.50
2011,09,25,03,57,20.20
2011,09,25,03,58,28.60
2011,09,25,03,59,19.90
2011,09,25,04,00,23.70
2011,09,25,04,01,23.60
2011,09,25,04,02,18.80
2011,09,25,04,03,21.70
2011,09,25,04,04,23.70
2011,09,25,04,05,26.60
2011,09,25,04,06,29.10
2011,09,25,04,07,22.20
2011,09,25,04,08,27.30
2011,09,25,04,09,30.30
2011,09,25,04,10,26.00
2011,09,25,04,11,28.30
2011,09,25,04,12,30.20
2011,09,25,04,13,25.90
2011,09,25,04,14,29.00
2011,09,25,04,15,24.30
2011,09,25,04,16,21.90
2011,09,25,04,17,24.00
2011,09,25,04,18,23.90
2011,09,25,04,19,28.30
2011,09,25,04,20,29.90
2011,09,25,04,21,29.00
2011,09,25,04,22,26.40
2011,09,25,04,23,25.60
2011,09,25,04,24,13.00
2011,09,25,04,25,19.90
2011,09,25,04,26,26.60
2011,09,25,04,27,19.70
2011,09,25,04,28,22.80
2011,09,25,04,29,24.30
2011,09,25,04,30,15.50
2011,09,25,04,31,18.00
2011,09,25,04,32,20.90
2011,09,25,04,33,21.10
2011,09,25,04,34,16.30
2011,09,25,04,35,16.00
2011,09,25,04,36,24.60
2011,09,25,04,37,14.90
2011,09,25,04,38,13.00
2011,09,25,04,39,20.20
2011,09,25,04,40,17.30
2011,09,25,04,41,24.10
2011,09,25,04,42,18.40
2011,09,25,04,43,14.50
2011,09,25,04,44,19.60
2011,09,25,04,45,12.60
2011,09,25,04,46,17.90
2011,09,25,04,47,12.60
2011,09,25,04,48,12.60
2011,09,25,04,49,20.00
2011,09,25,04,50,13.00
2011,09,25,04,51,10.50
2011,09,25,04,52,11.60
2011,09,25,04,53,7.20
2011,09,25,04,54,15.50
2011,09,25,04,55,6.80
2011,09,25,04,56,11.30
2011,09,25,04,57,14.80
2011,09,25,04,58,14.80
2011,09,25,04,59,13.10
2011,09,25,05,00,11.10
2011,09,25,05,01,16.80
2011,09,25,05,02,13.40
2011,09,25,05,03,9.30
2011,09,25,05,04,12.50
2011,09,25,05,05,11.30
2011,09,25,05,06,9.20
2011,09,25,05,07,11.70
2011,09,25,05,08,12.20
2011,09,25,05,09,10.80
2011,09,25,05,10,11.30
2011,09,25,05,11,17.90
2011,09,25,05,12,12.00
2011,09,25,05,13,10.80
2011,09,25,05,14,10.10
2011,09,25,05,15,9.20
2011,09,25,05,16,11.30
2011,09,25,05,17,10.30
2011,09,25,05,18,15.40
2011,09,25,05,19,11.90
2011,09,25,05,20,16.60
2011,09,25,05,21,13.70
2011,09,25,05,22,15.20
2011,09,25,05,23,15.80
2011,09,25,05,24,11.60
2011,09,25,05,25,9.70
2011,09,25,05,26,10.10
2011,09,25,05,27,8.50
2011,09,25,05,28,8.60
2011,09,25,05,29,9.10
2011,09,25,05,30,8.10
2011,09,25,05,31,7.70
2011,09,25,05,32,5.50
2011,09,25,05,33,8.90
2011,09,25,05,34,5.70
2011,09,25,05,35,4.30
2011,09,25,05,36,6.10
2011,09,25,05,37,3.50
2011,09,25,05,38,1.30
2011,09,25,05,39,4.50
2011,09,25,05,40,12.90
2011,09,25,05,41,10.40
2011,09,25,05,42,8.70
2011,09,25,05,43,11.60
2011,09,25,05,44,8.30
2011,09,25,05,45,4.50
2011,09,25,05,46,0.20
2011,09,25,05,47,2.30
2011,09,25,05,48,3.80
2011,09,25,05,49,1.10
2011,09,25,05,50,2.10
2011,09,25,05,51,3.00
2011,09,25,05,52,0.20
2011,09,25,05,53,2.80
2011,09,25,05,54,1.70
2011,09,25,05,55,4.20
2011,09,25,05,56,4.50
2011,09,25,05,57,2.60
2011,09,25,05,58,1.70
2011,09,25,05,59,2.20
2011,09,25,06,00,1.90
2011,09,25,06,01,3.10
2011,09,25,06,02,1.10
2011,09,25,06,03,1.80
2011,09,25,06,04,1.50
2011,09,25,06,05,3.00
2011,09,25,06,06,4.50
2011,09,25,06,07,4.70
2011,09,25,06,08,5.10
2011,09,25,06,09,5.80
2011,09,25,06,10,6.80
2011,09,25,06,11,3.60
2011,09,25,06,12,7.30
2011,09,25,06,13,5.10
2011,09,25,06,14,7.80
2011,09,25,06,15,8.00
2011,09,25,06,16,5.30
2011,09,25,06,17,4.50
2011,09,25,06,18,5.70
2011,09,25,06,19,6.60
2011,09,25,06,20,5.00
2011,09,25,06,21,6.40
2011,09,25,06,22,8.50
2011,09,25,06,23,4.30
2011,09,25,06,24,5.50
2011,09,25,06,25,6.50
2011,09,25,06,26,5.80
2011,09,25,06,27,7.90
2011,09,25,06,28,9.00
2011,09,25,06,29,9.40
2011,09,25,06,30,8.80
2011,09,25,06,31,10.80
2011,09,25,06,32,9.20
2011,09,25,06,33,8.80
2011,09,25,06,34,8.50
2011,09,25,06,35,10.20
2011,09,25,06,36,7.40
2011,09,25,06,37,8.10
2011,09,25,06,38,5.80
2011,09,25,06,39,3.80
2011,09,25,06,40,4.70
2011,09,25,06,41,4.70
2011,09,25,06,42,2.40
2011,09,25,06,43,9.70
2011,09,25,06,44,7.40
2011,09,25,06,45,10.60
2011,09,25,06,46,8.80
2011,09,25,06,47,5.60
2011,09,25,06,48,3.10
2011,09,25,06,49,4.70
2011,09,25,06,50,4.60
2011,09,25,06,51,3.90
2011,09,25,06,52,0.90
2011,09,25,06,53,2.30
2011,09,25,06,54,0.40
2011,09,25,06,55,1.60
2011,09,25,06,56,1.60
2011,09,25,06,57,1.30
2011,09,25,06,58,0.00
2011,09,25,06,59,0.10
2011,09,25,07,00,3.40
2011,09,25,07,01,3.70
2011,09,25,07,02,1.70
2011,09,25,07,03,5.90
2011,09,25,07,04,1.70
2011,09,25,07,05,1.40
2011,09,25,07,06,3.10
2011,09,25,07,07,0.00
2011,09,25,07,08,0.00
2011,09,25,07,09,0.30
2011,09,25,07,10,0.20
2011,09,25,07,11,1.00
2011,09,25,07,12,0.20
2011,09,25,07,13,0.10
2011,09,25,07,14,0.10
2011,09,25,07,15,1.80
2011,09,25,07,16,3.40
2011,09,25,07,17,0.00
2011,09,25,07,18,0.20
2011,09,25,07,19,3.50
2011,09,25,07,20,3.70
2011,09,25,07,21,1.00
2011,09,25,07,22,0.20
2011,09,25,07,23,0.80
2011,09,25,07,24,0.10
2011,09,25,07,25,2.30
2011,09,25,07,26,3.90
2011,09,25,07,27,3.00
2011,09,25,07,28,2.40
2011,09,25,07,29,0.00
2011,09,25,07,30,0.00
2011,09,25,07,31,0.00
2011,09,25,07,32,0.00
2011,09,25,07,33,0.20
2011,09,25,07,34,0.20
2011,09,25,07,35,0.20
2011,09,25,07,36,0.20
2011,09,25,07,37,0.70
2011,09,25,07,38,0.10
2011,09,25,07,39,0.10
2011,09,25,07,40,0.70
2011,09,25,07,41,1.00
2011,09,25,07,42,2.30
2011,09,25,07,43,1.60
2011,09,25,07,44,2.50
2011,09,25,07,45,4.00
2011,09,25,07,46,4.00
2011,09,25,07,47,1.50
2011,09,25,07,48,0.00
2011,09,25,07,49,0.00
2011,09,25,07,50,0.10
2011,09,25,07,51,0.00
2011,09,25,07,52,0.00
2011,09,25,07,53,0.40
2011,09,25,07,54,3.00
2011,09,25,07,55,2.80
2011,09,25,07,56,1.20
2011,09,25,07,57,0.10
2011,09,25,07,58,1.50
2011,09,25,07,59,0.40
2011,09,25,08,00,0.10
2011,09,25,08,01,0.00
2011,09,25,08,02,0.00
2011,09,25,08,03,0.00
2011,09,25,08,04,0.70
2011,09,25,08,05,6.10
2011,09,25,08,06,4.00
2011,09,25,08,07,3.70
2011,09,25,08,08,5.10
2011,09,25,08,09,2.80
2011,09,25,08,10,2.90
2011,09,25,08,11,4.20
2011,09,25,08,12,4.40
2011,09,25,08,13,5.30
2011,09,25,08,14,5.60
2011,09,25,08,15,4.80
2011,09,25,08,16,4.80
2011,09,25,08,17,4.70
2011,09,25,08,18,4.00
2011,09,25,08,19,4.50
2011,09,25,08,20,3.90
2011,09,25,08,21,3.00
2011,09,25,08,22,3.30
2011,09,25,08,23,0.50
2011,09,25,08,24,4.70
2011,09,25,08,25,4.20
2011,09,25,08,26,3.20
2011,09,25,08,27,4.00
2011,09,25,08,28,3.10
2011,09,25,08,29,5.00
2011,09,25,08,30,2.20
2011,09,25,08,31,5.10
2011,09,25,08,32,5.20
2011,09,25,08,33,6.80
2011,09,25,08,34,3.30
2011,09,25,08,35,6.30
2011,09,25,08,36,2.50
2011,09,25,08,37,7.70
2011,09,25,08,38,7.70
2011,09,25,08,39,4.70
2011,09,25,08,40,6.70
2011,09,25,08,41,2.90
2011,09,25,08,42,3.70
2011,09,25,08,43,7.00
2011,09,25,08,44,9.20
2011,09,25,08,45,5.70
2011,09,25,08,46,4.90
2011,09,25,08,47,6.80
2011,09,25,08,48,8.70
2011,09,25,08,49,7.20
2011,09,25,08,50,4.00
2011,09,25,08,51,5.30
2011,09,25,08,52,2.20
2011,09,25,08,53,2.90
2011,09,25,08,54,4.30
2011,09,25,08,55,3.80
2011,09,25,08,56,2.20
2011,09,25,08,57,3.10
2011,09,25,08,58,4.70
2011,09,25,08,59,6.80
2011,09,25,09,00,3.10
2011,09,25,09,01,1.60
2011,09,25,09,02,2.70
2011,09,25,09,03,1.70
2011,09,25,09,04,0.80
2011,09,25,09,05,0.10
2011,09,25,09,06,0.20
2011,09,25,09,07,0.00
2011,09,25,09,08,0.80
2011,09,25,09,09,3.90
2011,09,25,09,10,3.60
2011,09,25,09,11,3.60
2011,09,25,09,12,4.20
2011,09,25,09,13,4.30
2011,09,25,09,14,2.60
2011,09,25,09,15,1.80
2011,09,25,09,16,0.80
2011,09,25,09,17,1.70
2011,09,25,09,18,2.40
2011,09,25,09,19,2.30
2011,09,25,09,20,3.90
2011,09,25,09,21,3.60
2011,09,25,09,22,2.70
2011,09,25,09,23,2.10
2011,09,25,09,24,4.30
2011,09,25,09,25,2.90
2011,09,25,09,26,0.50
2011,09,25,09,27,0.00
2011,09,25,09,28,0.40
2011,09,25,09,29,1.70
2011,09,25,09,30,3.70
2011,09,25,09,31,3.30
2011,09,25,09,32,0.90
2011,09,25,09,33,1.80
2011,09,25,09,34,2.70
2011,09,25,09,35,0.10
2011,09,25,09,36,1.50
2011,09,25,09,37,0.30
2011,09,25,09,38,0.10
2011,09,25,09,39,0.30
2011,09,25,09,40,0.10
2011,09,25,09,41,4.70
2011,09,25,09,42,7.80
2011,09,25,09,43,8.00
2011,09,25,09,44,9.20
2011,09,25,09,45,5.40
2011,09,25,09,46,6.40
2011,09,25,09,47,6.40
2011,09,25,09,48,9.70
2011,09,25,09,49,10.30
2011,09,25,09,50,9.20
2011,09,25,09,51,6.40
2011,09,25,09,52,8.10
2011,09,25,09,53,4.80
2011,09,25,09,54,3.30
2011,09,25,09,55,8.60
2011,09,25,09,56,10.50
2011,09,25,09,57,9.70
2011,09,25,09,58,5.60
2011,09,25,09,59,6.90
2011,09,25,10,00,10.70
2011,09,25,10,01,9.60
2011,09,25,10,02,6.20
2011,09,25,10,03,14.70
2011,09,25,10,04,14.50
2011,09,25,10,05,13.00
2011,09,25,10,06,6.40
2011,09,25,10,07,7.40
2011,09,25,10,08,7.50
2011,09,25,10,09,13.00
2011,09,25,10,10,12.80
2011,09,25,10,11,9.60
2011,09,25,10,12,5.90
2011,09,25,10,13,5.90
2011,09,25,10,14,6.70
2011,09,25,10,15,4.80
2011,09,25,10,16,8.50
2011,09,25,10,17,7.70
2011,09,25,10,18,6.50
2011,09,25,10,19,7.00
2011,09,25,10,20,9.10
2011,09,25,10,21,10.00
2011,09,25,10,22,9.10
2011,09,25,10,23,10.80
2011,09,25,10,24,11.80
2011,09,25,10,25,10.00
2011,09,25,10,26,7.70
2011,09,25,10,27,7.20
2011,09,25,10,28,2.60
2011,09,25,10,29,5.60
2011,09,25,10,30,5.60
2011,09,25,10,31,3.00
2011,09,25,10,32,5.50
2011,09,25,10,33,4.90
2011,09,25,10,34,6.20
2011,09,25,10,35,4.00
2011,09,25,10,36,7.20
2011,09,25,10,37,6.10
2011,09,25,10,38,4.30
2011,09,25,10,39,4.20
2011,09,25,10,40,3.20
2011,09,25,10,41,8.10
2011,09,25,10,42,7.50
2011,09,25,10,43,6.00
2011,09,25,10,44,7.50
2011,09,25,10,45,9.70
2011,09,25,10,46,7.80
2011,09,25,10,47,5.60
2011,09,25,10,48,6.90
2011,09,25,10,49,2.70
2011,09,25,10,50,3.40
2011,09,25,10,51,3.90
2011,09,25,10,52,2.30
2011,09,25,10,53,0.10
2011,09,25,10,54,0.60
2011,09,25,10,55,1.60
2011,09,25,10,56,0.00
2011,09,25,10,57,2.60
2011,09,25,10,58,6.20
2011,09,25,10,59,12.00
2011,09,25,11,00,5.30
2011,09,25,11,01,6.30
2011,09,25,11,02,3.80
2011,09,25,11,03,4.80
2011,09,25,11,04,6.70
2011,09,25,11,05,7.30
2011,09,25,11,06,6.00
2011,09,25,11,07,1.70
2011,09,25,11,08,6.80
2011,09,25,11,09,5.20
2011,09,25,11,10,6.00
2011,09,25,11,11,3.60
2011,09,25,11,12,1.60
2011,09,25,11,13,4.80
2011,09,25,11,14,4.90
2011,09,25,11,15,4.80
2011,09,25,11,16,0.90
2011,09,25,11,17,6.00
2011,09,25,11,18,4.60
2011,09,25,11,19,6.10
2011,09,25,11,20,3.10
2011,09,25,11,21,6.00
2011,09,25,11,22,4.60
2011,09,25,11,23,5.30
2011,09,25,11,24,2.80
2011,09,25,11,25,5.60
2011,09,25,11,26,2.60
2011,09,25,11,27,0.60
2011,09,25,11,28,6.60
2011,09,25,11,29,6.20
2011,09,25,11,30,6.70
2011,09,25,11,31,1.40
2011,09,25,11,32,0.00
2011,09,25,11,33,0.10
2011,09,25,11,34,4.30
2011,09,25,11,35,2.50
2011,09,25,11,36,5.20
2011,09,25,11,37,7.00
2011,09,25,11,38,4.40
2011,09,25,11,39,4.70
2011,09,25,11,40,5.00
2011,09,25,11,41,5.00
2011,09,25,11,42,4.90
2011,09,25,11,43,5.10
2011,09,25,11,44,6.10
2011,09,25,11,45,4.70
2011,09,25,11,46,6.00
2011,09,25,11,47,3.50
2011,09,25,11,48,7.20
2011,09,25,11,49,5.10
2011,09,25,11,50,4.30
2011,09,25,11,51,1.70
2011,09,25,11,52,2.60
2011,09,25,11,53,6.00
2011,09,25,11,54,2.40
2011,09,25,11,55,0.80
2011,09,25,11,56,1.40
2011,09,25,11,57,1.50
2011,09,25,11,58,2.60
2011,09,25,11,59,3.00
2011,09,25,12,00,1.30
2011,09,25,12,01,0.10
2011,09,25,12,02,0.00
2011,09,25,12,03,0.10
2011,09,25,12,04,2.80
2011,09,25,12,05,3.50
2011,09,25,12,06,1.80
2011,09,25,12,07,0.20
2011,09,25,12,08,0.20
2011,09,25,12,09,0.00
2011,09,25,12,10,0.40
2011,09,25,12,11,3.90
2011,09,25,12,12,2.60
2011,09,25,12,13,2.40
2011,09,25,12,14,1.30
2011,09,25,12,15,2.40
2011,09,25,12,16,0.10
2011,09,25,12,17,1.00
2011,09,25,12,18,1.50
2011,09,25,12,19,1.10
2011,09,25,12,20,3.90
2011,09,25,12,21,0.60
2011,09,25,12,22,1.00
2011,09,25,12,23,0.20
2011,09,25,12,24,2.70
2011,09,25,12,25,1.20
2011,09,25,12,26,1.00
2011,09,25,12,27,0.90
2011,09,25,12,28,1.10
2011,09,25,12,29,0.60
2011,09,25,12,30,0.70
2011,09,25,12,31,1.10
2011,09,25,12,32,0.90
2011,09,25,12,33,0.00
2011,09,25,12,34,0.40
2011,09,25,12,35,2.40
2011,09,25,12,36,0.00
2011,09,25,12,37,0.00
2011,09,25,12,38,0.00
2011,09,25,12,39,0.00
2011,09,25,12,40,0.00
2011,09,25,12,41,0.20
2011,09,25,12,42,0.60
2011,09,25,12,43,0.00
2011,09,25,12,44,0.50
2011,09,25,12,45,1.80
2011,09,25,12,46,1.50
2011,09,25,12,47,4.70
2011,09,25,12,48,6.00
2011,09,25,12,49,3.70
2011,09,25,12,50,2.00
2011,09,25,12,51,4.50
2011,09,25,12,52,3.60
2011,09,25,12,53,3.20
2011,09,25,12,54,6.40
2011,09,25,12,55,3.50
2011,09,25,12,56,1.50
2011,09,25,12,57,2.40
2011,09,25,12,58,5.40
2011,09,25,12,59,3.10
2011,09,25,13,00,4.30
2011,09,25,13,01,4.70
2011,09,25,13,02,4.70
2011,09,25,13,03,5.30
2011,09,25,13,04,1.00
2011,09,25,13,05,5.20
2011,09,25,13,06,1.20
2011,09,25,13,07,1.40
2011,09,25,13,08,6.50
2011,09,25,13,09,8.20
2011,09,25,13,10,6.90
2011,09,25,13,11,7.20
2011,09,25,13,12,6.30
2011,09,25,13,13,8.50
2011,09,25,13,14,13.70
2011,09,25,13,15,16.40
2011,09,25,13,16,16.40
2011,09,25,13,17,15.40
2011,09,25,13,18,16.40
2011,09,25,13,19,17.20
2011,09,25,13,20,15.90
2011,09,25,13,21,22.40
2011,09,25,13,22,16.50
2011,09,25,13,23,14.00
2011,09,25,13,24,9.70
2011,09,25,13,25,16.90
2011,09,25,13,26,17.20
2011,09,25,13,27,12.90
2011,09,25,13,28,17.20
2011,09,25,13,29,16.50
2011,09,25,13,30,12.30
2011,09,25,13,31,10.30
2011,09,25,13,32,13.80
2011,09,25,13,33,16.80
2011,09,25,13,34,12.00
2011,09,25,13,35,16.00
2011,09,25,13,36,19.60
2011,09,25,13,37,15.50
2011,09,25,13,38,13.30
2011,09,25,13,39,10.70
2011,09,25,13,40,18.00
2011,09,25,13,41,16.90
2011,09,25,13,42,11.60
2011,09,25,13,43,11.30
2011,09,25,13,44,11.50
2011,09,25,13,45,18.90
2011,09,25,13,46,11.30
2011,09,25,13,47,14.50
2011,09,25,13,48,17.10
2011,09,25,13,49,20.40
2011,09,25,13,50,13.60
2011,09,25,13,51,7.60
2011,09,25,13,52,13.70
2011,09,25,13,53,10.60
2011,09,25,13,54,13.00
2011,09,25,13,55,16.30
2011,09,25,13,56,12.00
2011,09,25,13,57,16.30
2011,09,25,13,58,16.70
2011,09,25,13,59,11.60
2011,09,25,14,00,10.90
2011,09,25,14,01,14.00
2011,09,25,14,02,7.40
2011,09,25,14,03,13.30
2011,09,25,14,04,17.70
2011,09,25,14,05,23.20
2011,09,25,14,06,13.20
2011,09,25,14,07,15.30
2011,09,25,14,08,19.40
2011,09,25,14,09,18.20
2011,09,25,14,10,13.80
2011,09,25,14,11,9.50
2011,09,25,14,12,12.90
2011,09,25,14,13,10.30
2011,09,25,14,14,8.50
2011,09,25,14,15,7.30
2011,09,25,14,16,10.60
2011,09,25,14,17,6.80
2011,09,25,14,18,7.00
2011,09,25,14,19,14.90
2011,09,25,14,20,12.20
2011,09,25,14,21,15.30
2011,09,25,14,22,16.50
2011,09,25,14,23,10.10
2011,09,25,14,24,11.20
2011,09,25,14,25,13.90
2011,09,25,14,26,12.30
2011,09,25,14,27,10.10
2011,09,25,14,28,10.90
2011,09,25,14,29,10.70
2011,09,25,14,30,9.50
2011,09,25,14,31,9.60
2011,09,25,14,32,11.30
2011,09,25,14,33,13.10
2011,09,25,14,34,12.20
2011,09,25,14,35,12.90
2011,09,25,14,36,10.30
2011,09,25,14,37,13.40
2011,09,25,14,38,8.40
2011,09,25,14,39,7.90
2011,09,25,14,40,14.90
2011,09,25,14,41,21.70
2011,09,25,14,42,24.20
2011,09,25,14,43,15.20
2011,09,25,14,44,17.50
2011,09,25,14,45,25.60
2011,09,25,14,46,19.60
2011,09,25,14,47,16.40
2011,09,25,14,48,25.00
2011,09,25,14,49,20.10
2011,09,25,14,50,20.10
2011,09,25,14,51,21.40
2011,09,25,14,52,27.00
2011,09,25,14,53,26.60
2011,09,25,14,54,29.70
2011,09,25,14,55,33.20
2011,09,25,14,56,22.40
2011,09,25,14,57,24.50
2011,09,25,14,58,22.90
2011,09,25,14,59,20.90
2011,09,25,15,00,27.50
2011,09,25,15,01,27.20
2011,09,25,15,02,33.00
2011,09,25,15,03,28.70
2011,09,25,15,04,25.30
2011,09,25,15,05,27.20
2011,09,25,15,06,17.00
2011,09,25,15,07,15.80
2011,09,25,15,08,20.30
2011,09,25,15,09,22.60
2011,09,25,15,10,25.60
2011,09,25,15,11,24.50
2011,09,25,15,12,21.50
2011,09,25,15,13,21.70
2011,09,25,15,14,19.60
2011,09,25,15,15,20.80
2011,09,25,15,16,19.50
2011,09,25,15,17,23.50
2011,09,25,15,18,17.30
2011,09,25,15,19,22.00
2011,09,25,15,20,20.80
2011,09,25,15,21,23.50
2011,09,25,15,22,26.20
2011,09,25,15,23,21.90
2011,09,25,15,24,29.00
2011,09,25,15,25,25.60
2011,09,25,15,26,21.30
2011,09,25,15,27,26.50
2011,09,25,15,28,22.30
2011,09,25,15,29,21.40
2011,09,25,15,30,23.00
2011,09,25,15,31,23.00
2011,09,25,15,32,24.10
2011,09,25,15,33,18.80
2011,09,25,15,34,27.00
2011,09,25,15,35,20.40
2011,09,25,15,36,19.60
2011,09,25,15,37,21.30
2011,09,25,15,38,29.90
2011,09,25,15,39,28.20
2011,09,25,15,40,20.50
2011,09,25,15,41,17.80
2011,09,25,15,42,17.30
2011,09,25,15,43,13.80
2011,09,25,15,44,21.50
2011,09,25,15,45,20.80
2011,09,25,15,46,20.40
2011,09,25,15,47,26.60
2011,09,25,15,48,20.50
2011,09,25,15,49,25.70
2011,09,25,15,50,19.20
2011,09,25,15,51,17.60
2011,09,25,15,52,22.00
2011,09,25,15,53,27.70
2011,09,25,15,54,25.30
2011,09,25,15,55,21.50
2011,09,25,15,56,22.40
2011,09,25,15,57,24.10
2011,09,25,15,58,17.30
2011,09,25,15,59,17.20
2011,09,25,16,00,21.80
2011,09,25,16,01,21.40
2011,09,25,16,02,15.90
2011,09,25,16,03,17.40
2011,09,25,16,04,19.60
2011,09,25,16,05,23.60
2011,09,25,16,06,14.10
2011,09,25,16,07,13.90
2011,09,25,16,08,9.90
2011,09,25,16,09,14.30
2011,09,25,16,10,13.20
2011,09,25,16,11,10.10
2011,09,25,16,12,20.30
2011,09,25,16,13,15.80
2011,09,25,16,14,20.90
2011,09,25,16,15,18.10
2011,09,25,16,16,17.00
2011,09,25,16,17,18.50
2011,09,25,16,18,21.00
2011,09,25,16,19,16.10
2011,09,25,16,20,19.20
2011,09,25,16,21,14.60
2011,09,25,16,22,17.10
2011,09,25,16,23,17.10
2011,09,25,16,24,15.20
2011,09,25,16,25,18.80
2011,09,25,16,26,14.00
2011,09,25,16,27,17.10
2011,09,25,16,28,11.70
2011,09,25,16,29,8.70
2011,09,25,16,30,10.10
2011,09,25,16,31,13.40
2011,09,25,16,32,16.30
2011,09,25,16,33,11.00
2011,09,25,16,34,14.60
2011,09,25,16,35,16.90
2011,09,25,16,36,14.90
2011,09,25,16,37,8.20
2011,09,25,16,38,11.70
2011,09,25,16,39,21.20
2011,09,25,16,40,12.90
2011,09,25,16,41,13.50
2011,09,25,16,42,16.80
2011,09,25,16,43,17.90
2011,09,25,16,44,18.50
2011,09,25,16,45,16.50
2011,09,25,16,46,20.90
2011,09,25,16,47,22.30
2011,09,25,16,48,24.30
2011,09,25,16,49,14.30
2011,09,25,16,50,22.40
2011,09,25,16,51,15.90
2011,09,25,16,52,16.30
2011,09,25,16,53,23.50
2011,09,25,16,54,22.00
2011,09,25,16,55,23.60
2011,09,25,16,56,19.70
2011,09,25,16,57,19.60
2011,09,25,16,58,18.00
2011,09,25,16,59,25.80
2011,09,25,17,00,22.20
2011,09,25,17,01,19.50
2011,09,25,17,02,22.00
2011,09,25,17,03,23.00
2011,09,25,17,04,21.80
2011,09,25,17,05,16.30
2011,09,25,17,06,14.90
2011,09,25,17,07,14.30
2011,09,25,17,08,21.80
2011,09,25,17,09,19.30
2011,09,25,17,10,30.30
2011,09,25,17,11,22.50
2011,09,25,17,12,11.30
2011,09,25,17,13,12.10
2011,09,25,17,14,11.60
2011,09,25,17,15,15.00
2011,09,25,17,16,10.70
2011,09,25,17,17,13.90
2011,09,25,17,18,18.70
2011,09,25,17,19,18.10
2011,09,25,17,20,18.20
2011,09,25,17,21,20.20
2011,09,25,17,22,18.40
2011,09,25,17,23,20.20
2011,09,25,17,24,24.00
2011,09,25,17,25,15.40
2011,09,25,17,26,11.30
2011,09,25,17,27,21.30
2011,09,25,17,28,21.20
2011,09,25,17,29,18.50
2011,09,25,17,30,15.90
2011,09,25,17,31,21.30
2011,09,25,17,32,23.30
2011,09,25,17,33,20.90
2011,09,25,17,34,21.20
2011,09,25,17,35,15.10
2011,09,25,17,36,10.10
2011,09,25,17,37,12.20
2011,09,25,17,38,20.00
2011,09,25,17,39,22.80
2011,09,25,17,40,20.00
2011,09,25,17,41,21.20
2011,09,25,17,42,15.80
2011,09,25,17,43,18.00
2011,09,25,17,44,17.40
2011,09,25,17,45,17.10
2011,09,25,17,46,23.40
2011,09,25,17,47,28.00